sat.trackr.live / text

‹ back to catalog

POLAR

NORAD 23802 · 1996-013A

PAYLOAD ACTIVE UNKNOWN

§ Identity

Operator
Country
US
Launch date
1996-02-24
Launch site
AFWTR
Launch vehicle
Mass (kg)
RCS (m²)
6.03

Purposes: science

External: N2YO · Heavens-Above · Gunter

§ Orbital elements

Epoch: 2026-05-24T22:19:27.642720Z

Period
1,109.01 min
Inclination
79.8303°
Eccentricity
0.6447172
Mean motion
1.29846063 rev/d
Perigee alt
6,231.1 km
Apogee alt
51,994.2 km
Semi-major
35,490.8 km
B*
0.0000e+0
RAAN
227.3240°
Arg perigee
209.8792°
Mean anomaly
88.4229°
Rev number
14,455

§ Raw data

POLAR1 23802U 96013A   26144.93018105  .00000009  00000+0  00000+0 0  99952 23802  79.8303 227.3240 6447172 209.8792  88.4229  1.29846063144556

JSON: /api/v1/satellites/23802 · /tle

For live sub-satellite position, see the globe view (requires WebGL).

§ Visibility from observer

Set your observer location to see the next 7 days of passes ≥ 10°. The values pass through the URL so the page stays shareable.

No JS? Fill the form by hand. The geolocation button needs JavaScript.

§ Radio — SatNOGS DB

ModeDescriptionDownlinkUplink
FM Mode S 2.265 GHz

1 transmitter · refreshed weekly from db.satnogs.org